| time (UTC) | temp F | wind direction | speed MPH | gust MPH | rain 1hr in | rain 24hr in | rain mn in | humidity % | barometer mb |
| 20260507010042 | 43 | 97 | 0.0 | 1.0 | 0.00 | 0.68 | 0.66 | 95 | 1006.5 |
| 20260507004545 | 43 | 95 | 0.0 | 0.0 | 0.00 | 0.68 | 0.66 | 95 | 1006.3 |
| 20260507003041 | 44 | 95 | 0.0 | 0.0 | 0.00 | 0.68 | 0.66 | 94 | 1006.3 |
| 20260507001548 | 44 | 94 | 0.0 | 0.0 | 0.00 | 0.68 | 0.66 | 94 | 1006.0 |
| 20260507000040 | 44 | 94 | 0.0 | 0.0 | 0.00 | 0.68 | 0.66 | 94 | 1005.9 |
| 20260506234540 | 45 | 93 | 0.0 | 0.0 | 0.00 | 0.68 | 0.66 | 94 | 1005.6 |
| 20260506233040 | 45 | 83 | 0.0 | 0.0 | 0.00 | 0.68 | 0.66 | 94 | 1005.6 |
| 20260506231539 | 45 | 82 | 0.0 | 0.0 | 0.00 | 0.68 | 0.66 | 93 | 1005.2 |
| 20260506230038 | 46 | 83 | 0.0 | 0.0 | 0.00 | 0.68 | 0.66 | 94 | 1005.2 |
| 20260506224538 | 45 | 82 | 0.0 | 0.0 | 0.00 | 0.68 | 0.66 | 94 | 1005.2 |
| 20260506223038 | 45 | 82 | 0.0 | 0.0 | 0.01 | 0.68 | 0.66 | 94 | 1005.1 |
| 20260506221538 | 45 | 82 | 0.0 | 0.0 | 0.01 | 0.68 | 0.66 | 94 | 1005.4 |
| 20260506220040 | 45 | 82 | 0.0 | 0.0 | 0.01 | 0.68 | 0.66 | 94 | 1005.2 |
| 20260506214548 | 45 | 82 | 0.0 | 0.0 | 0.01 | 0.68 | 0.66 | 94 | 1005.4 |
| 20260506213036 | 45 | 83 | 0.0 | 0.0 | 0.00 | 0.67 | 0.65 | 93 | 1005.3 |
| 20260506211535 | 45 | 82 | 0.0 | 0.0 | 0.00 | 0.67 | 0.65 | 93 | 1005.3 |
| 20260506210035 | 45 | 81 | 0.0 | 0.0 | 0.00 | 0.67 | 0.65 | 93 | 1005.2 |
| 20260506204538 | 45 | 82 | 0.0 | 0.0 | 0.00 | 0.67 | 0.65 | 93 | 1005.1 |
| 20260506203034 | 45 | 83 | 0.0 | 0.0 | 0.01 | 0.67 | 0.65 | 93 | 1005.2 |
| 20260506201534 | 45 | 84 | 0.0 | 1.0 | 0.01 | 0.67 | 0.65 | 92 | 1005.2 |
| 20260506200032 | 45 | 81 | 0.0 | 0.0 | 0.02 | 0.70 | 0.65 | 93 | 1005.1 |
| 20260506194533 | 45 | 80 | 0.0 | 0.0 | 0.02 | 0.70 | 0.65 | 93 | 1005.2 |
| 20260506193034 | 45 | 80 | 0.0 | 0.0 | 0.01 | 0.69 | 0.64 | 93 | 1005.2 |
| 20260506191532 | 45 | 88 | 0.0 | 1.0 | 0.01 | 0.69 | 0.64 | 92 | 1005.0 |
| 20260506190030 | 45 | 89 | 0.0 | 1.0 | 0.00 | 0.69 | 0.63 | 92 | 1004.9 |
| 20260506184530 | 45 | 94 | 0.0 | 0.0 | 0.00 | 0.69 | 0.63 | 91 | 1005.0 |
| 20260506183028 | 45 | 121 | 0.0 | 0.0 | 0.00 | 0.69 | 0.63 | 91 | 1005.1 |
| 20260506181527 | 45 | 124 | 0.0 | 0.0 | 0.01 | 0.69 | 0.63 | 92 | 1005.2 |
| 20260506180026 | 45 | 96 | 0.0 | 0.0 | 0.03 | 0.69 | 0.63 | 92 | 1005.4 |
| 20260506174526 | 44 | 123 | 0.0 | 4.0 | 0.05 | 0.69 | 0.63 | 94 | 1005.4 |
| 20260506173026 | 44 | 53 | 0.0 | 0.0 | 0.08 | 0.69 | 0.63 | 94 | 1005.5 |
| 20260506171525 | 43 | 316 | 0.0 | 0.0 | 0.09 | 0.68 | 0.62 | 94 | 1005.8 |
| 20260506170025 | 43 | 315 | 0.0 | 0.0 | 0.09 | 0.66 | 0.60 | 94 | 1005.7 |
| 20260506164527 | 43 | 359 | 0.0 | 0.0 | 0.10 | 0.64 | 0.57 | 93 | 1005.9 |
| 20260506163023 | 43 | 317 | 0.0 | 0.0 | 0.09 | 0.61 | 0.55 | 93 | 1006.0 |
| 20260506161523 | 43 | 316 | 0.0 | 0.0 | 0.09 | 0.59 | 0.53 | 94 | 1005.8 |
| 20260506160023 | 43 | 314 | 0.0 | 0.0 | 0.09 | 0.56 | 0.51 | 94 | 1006.1 |
| 20260506154522 | 42 | 313 | 0.0 | 0.0 | 0.09 | 0.54 | 0.48 | 94 | 1006.2 |
| 20260506153021 | 42 | 314 | 0.0 | 0.0 | 0.09 | 0.52 | 0.46 | 94 | 1006.3 |
| 20260506151523 | 42 | 313 | 0.0 | 0.0 | 0.10 | 0.50 | 0.44 | 94 | 1006.4 |
| 20260506150021 | 42 | 314 | 0.0 | 0.0 | 0.08 | 0.47 | 0.41 | 94 | 1006.6 |
| 20260506144522 | 42 | 359 | 0.0 | 0.0 | 0.09 | 0.45 | 0.39 | 94 | 1006.1 |
| 20260506143025 | 43 | 359 | 0.0 | 0.0 | 0.09 | 0.43 | 0.37 | 94 | 1006.4 |
| 20260506141526 | 42 | 359 | 0.0 | 0.0 | 0.07 | 0.40 | 0.34 | 94 | 1006.0 |
| 20260506140021 | 42 | 359 | 0.0 | 0.0 | 0.07 | 0.39 | 0.33 | 94 | 1006.4 |
| 20260506134518 | 42 | 313 | 0.0 | 0.0 | 0.05 | 0.36 | 0.30 | 94 | 1006.2 |
| 20260506133019 | 42 | 313 | 0.0 | 0.0 | 0.05 | 0.34 | 0.28 | 94 | 1006.1 |
| 20260506131523 | 42 | 359 | 0.0 | 0.0 | 0.05 | 0.33 | 0.27 | 94 | 1006.1 |
| 20260506130018 | 42 | 313 | 0.0 | 0.0 | 0.07 | 0.32 | 0.26 | 94 | 1006.2 |
| 20260506124515 | 42 | 313 | 0.0 | 0.0 | 0.07 | 0.31 | 0.25 | 94 | 1006.3 |
| 20260506123015 | 43 | 359 | 0.0 | 0.0 | 0.08 | 0.28 | 0.23 | 95 | 1006.8 |
| 20260506121512 | 43 | 359 | 0.0 | 0.0 | 0.10 | 0.27 | 0.21 | 95 | 1006.6 |
| 20260506120022 | 42 | 359 | 0.0 | 0.0 | 0.09 | 0.25 | 0.19 | 94 | 1006.9 |
| 20260506114511 | 43 | 313 | 0.0 | 0.0 | 0.08 | 0.23 | 0.17 | 95 | 1007.0 |
| 20260506113010 | 43 | 359 | 0.0 | 0.0 | 0.07 | 0.21 | 0.15 | 94 | 1007.4 |
| 20260506111508 | 42 | 313 | 0.0 | 0.0 | 0.05 | 0.17 | 0.11 | 94 | 1006.8 |
| 20260506110007 | 42 | 314 | 0.0 | 0.0 | 0.06 | 0.16 | 0.10 | 94 | 1006.7 |
| 20260506104507 | 42 | 313 | 0.0 | 0.0 | 0.06 | 0.15 | 0.09 | 93 | 1006.6 |
| 20260506103005 | 43 | 313 | 0.0 | 0.0 | 0.04 | 0.13 | 0.07 | 93 | 1006.5 |
| 20260506101503 | 43 | 314 | 0.0 | 0.0 | 0.03 | 0.12 | 0.06 | 92 | 1006.3 |
| 20260506100002 | 44 | 314 | 0.0 | 0.0 | 0.01 | 0.10 | 0.04 | 92 | 1006.1 |
| 20260506094501 | 44 | 359 | 0.0 | 0.0 | 0.00 | 0.09 | 0.03 | 91 | 1006.3 |
| 20260506093101 | 43 | 220 | 0.0 | 0.0 | 0.00 | 0.09 | 0.03 | 91 | 1006.6 |
| 20260506091559 | 43 | 220 | 0.0 | 0.0 | 0.00 | 0.09 | 0.03 | 92 | 1006.2 |
| 20260506090100 | 44 | 228 | 0.0 | 0.0 | 0.00 | 0.09 | 0.03 | 93 | 1006.6 |
| 20260506084559 | 44 | 190 | 0.0 | 0.0 | 0.00 | 0.09 | 0.03 | 93 | 1006.8 |
| 20260506083059 | 44 | 191 | 0.0 | 0.0 | 0.00 | 0.09 | 0.03 | 93 | 1006.3 |
| 20260506081554 | 44 | 190 | 0.0 | 0.0 | 0.00 | 0.09 | 0.03 | 92 | 1006.3 |
| 20260506080106 | 44 | 193 | 0.0 | 0.0 | 0.00 | 0.09 | 0.03 | 92 | 1006.3 |
| 20260506073103 | 45 | 193 | 0.0 | 0.0 | 0.00 | 0.09 | 0.03 | 91 | 1006.5 |
| 20260506071549 | 46 | 359 | 0.0 | 1.0 | 0.01 | 0.09 | 0.03 | 89 | 1006.2 |
| 20260506061540 | 47 | 251 | 0.0 | 0.0 | 0.00 | 0.08 | 0.02 | 93 | 1006.3 |
| 20260506044538 | 49 | 261 | 0.0 | 0.0 | 0.02 | 0.07 | 0.01 | 92 | 1006.2 |
| 20260506043027 | 49 | 149 | 1.0 | 5.0 | 0.02 | 0.07 | 0.01 | 92 | 1005.8 |
| 20260506041537 | 50 | 235 | 0.0 | 2.0 | 0.01 | 0.06 | 0.00 | 91 | 1005.4 |
| 20260506040024 | 50 | 316 | 2.0 | 9.0 | 0.01 | 0.05 | 0.05 | 89 | 1005.4 |
| 20260506034529 | 51 | 287 | 0.0 | 6.0 | 0.01 | 0.05 | 0.05 | 89 | 1005.2 |
| 20260506033021 | 51 | 174 | 1.0 | 6.0 | 0.01 | 0.05 | 0.05 | 87 | 1004.9 |
| 20260506031521 | 52 | 220 | 1.0 | 6.0 | 0.01 | 0.05 | 0.05 | 86 | 1005.1 |
| 20260506030020 | 52 | 162 | 0.0 | 6.0 | 0.00 | 0.04 | 0.04 | 85 | 1005.1 |
| 20260506024520 | 53 | 324 | 0.0 | 0.0 | 0.00 | 0.04 | 0.04 | 84 | 1005.4 |
| 20260506023020 | 54 | 295 | 0.0 | 6.0 | 0.00 | 0.04 | 0.04 | 82 | 1005.1 |
| 20260506021517 | 55 | 105 | 2.0 | 11.0 | 0.00 | 0.04 | 0.04 | 80 | 1004.9 |
| 20260506020015 | 56 | 326 | 0.0 | 11.0 | 0.00 | 0.04 | 0.04 | 74 | 1004.9 |
| 20260506014516 | 57 | 324 | 0.0 | 8.0 | 0.00 | 0.04 | 0.04 | 68 | 1004.9 |
| 20260506013016 | 58 | 326 | 4.0 | 12.0 | 0.00 | 0.04 | 0.04 | 68 | 1004.9 |
| 20260506011532 | 59 | 234 | 1.0 | 6.0 | 0.00 | 0.04 | 0.04 | 68 | 1004.5 |